Location: Breungeshain
(50.5000°N, 9.2000°E)
Time: 15:36:35
(UTC+00:00)

ISS - Visible Passes

Search period start: 19 November 2018 00:00
Search period end: 29 November 2018 00:00
Orbit: 401 x 408 km, 51.6° (Epoch: 20 November)

Date Brightness Start Highest point End Pass type
(mag) Time Alt. Az. Time Alt. Az. Time Alt. Az.
24 Nov -1.3 17:33:30 10° S 17:34:03 12° SSE 17:34:03 12° SSE visible
25 Nov -1.0 18:16:16 10° SW 18:16:54 14° SW 18:16:54 14° SW visible
26 Nov -2.4 17:24:29 10° SSW 17:26:59 26° SSE 17:26:59 26° SSE visible
27 Nov -1.9 16:33:02 10° S 16:35:19 18° SE 16:37:00 13° ESE visible
27 Nov -1.7 18:08:07 10° WSW 18:09:40 25° WSW 18:09:40 25° WSW visible
28 Nov -3.4 17:16:05 10° SW 17:19:14 47° SSE 17:19:36 44° SE visible
